Vertical_Velocity
2 -1 -2 -3 -1 1 3 4 5 5 3 -0 -3 -3 -2 -1 -3 -4 -3 -0 3 6 7 6 4 2 1 0 -1 -1 1 2 2 2 2 3 0 -2 -2 -1 -0 0 1 1 1 1 0 1 1 1 1 0 1 1 1 1 1 1 1 2 2 2 1 1 0 -0 0 0 -1
0 -1 -3 -2 1 3 5 6 6 5 4 -1 -3 -2 -1 -2 -5 -5 -4 -0 3 5 6 5 2 0 -1 -1 -1 0 2 2 2 2 2 4 1 -0 -0 1 1 1 1 1 1 1 1 1 1 0 0 1 1 1 1 1 1 1 2 2 1 1 1 0 -0 -0 -0 -1 -1
-0 -2 -2 -1 1 2 3 5 4 4 2 -2 -3 -2 -1 -2 -4 -4 -2 1 4 6 6 3 -0 -2 -3 -2 -0 2 3 3 2 2 2 5 4 2 2 1 1 1 1 1 1 1 1 0 0 0 1 2 2 2 1 1 1 1 1 1 1 1 1 0 -0 -1 -1 -1 -1
-2 -3 -2 -1 -0 1 3 5 5 3 -1 -5 -4 -2 -1 -3 -3 -2 1 4 7 7 4 0 -2 -4 -4 -2 1 3 3 2 2 2 3 6 6 4 2 1 1 1 1 1 1 1 0 -0 0 1 2 3 2 1 1 1 1 1 0 -0 1 1 1 -0 -1 -2 -2 -2 -1
-2 -2 -1 -0 1 3 5 6 4 -1 -4 -4 -1 -0 -2 -4 -2 1 4 8 7 3 -0 -2 -4 -5 -3 -1 2 3 3 3 2 1 2 6 6 5 3 2 1 1 1 1 1 0 -0 -0 1 3 3 3 2 1 0 -0 -0 -1 -1 0 1 1 -0 -2 -2 -2 -1 -1 -1
-2 -1 0 1 3 5 7 4 -1 -5 -4 2 3 1 -2 -3 -1 3 5 6 2 -1 -3 -5 -5 -4 -2 0 1 2 3 3 1 -0 1 5 6 6 4 3 1 1 1 1 0 -0 -0 1 3 4 4 3 1 -0 -1 -1 -1 -1 -0 1 1 -0 -1 -2 -2 -2 -1 -1 -1
-1 -1 -0 1 3 6 6 3 -2 -3 -1 3 3 1 -1 -1 1 3 3 1 -1 -2 -3 -5 -5 -3 -1 0 1 1 1 1 0 -1 -1 4 5 4 2 1 1 1 1 0 -0 -0 1 3 5 5 3 1 -0 -1 -2 -2 -1 -0 1 1 -1 -1 -1 -2 -2 -1 -1 -1 -1
-1 -1 0 2 5 6 3 -0 -1 -0 2 3 2 1 1 2 3 3 3 1 -1 -2 -3 -4 -4 -3 -2 0 0 0 0 0 -1 -2 -1 1 2 1 -0 0 1 1 0 -1 -0 1 3 6 5 4 1 -1 -2 -2 -2 -1 0 1 1 -0 -1 -1 -1 -1 -1 -1 -0 -1 -1
-1 -1 1 4 7 5 0 -5 -2 1 2 1 1 1 2 4 4 4 2 0 -2 -3 -3 -3 -4 -2 -0 1 0 1 1 -0 -1 -1 -1 0 -0 -1 -1 1 1 0 -1 -1 1 4 6 6 4 1 -1 -2 -2 -2 -1 0 1 0 -0 -1 -2 -2 -1 -1 -1 -0 -0 -0 0
-2 -1 3 9 8 3 -3 -4 -0 2 2 1 2 2 3 4 4 3 0 -2 -2 -3 -4 -5 -4 -2 -0 0 3 4 3 1 0 1 1 2 -0 -1 -1 0 0 -0 -1 0 3 6 7 5 1 -1 -2 -2 -1 -0 0 1 0 -1 -2 -2 -2 -2 -1 -1 -0 -0 0 0 1
-1 2 6 10 6 1 -2 1 2 2 3 3 3 3 3 3 2 1 -1 -1 -2 -3 -4 -4 -2 -1 1 2 5 5 4 2 2 4 5 5 -1 -2 -2 -1 -1 -1 0 2 6 7 6 2 -0 -2 -2 -1 0 1 1 1 -1 -2 -3 -3 -2 -2 -2 -1 -0 0 1 1 1
-1 4 7 8 3 1 1 3 2 2 3 3 3 3 2 1 -1 -1 -2 -2 -4 -4 -2 0 3 5 5 4 6 5 3 2 4 7 8 4 -1 -3 -2 -1 -1 -0 2 5 7 6 3 0 -1 -1 -1 1 2 2 1 -1 -2 -3 -4 -3 -2 -2 -1 -1 -0 0 1 1 1
1 6 7 3 0 1 2 4 3 3 3 3 3 2 1 -0 -1 -2 -2 -3 -4 -3 -0 2 7 11 12 6 6 5 4 3 6 7 6 1 -2 -3 -2 -2 -1 1 4 8 6 3 1 -1 -1 -0 1 2 2 1 -0 -2 -3 -3 -3 -2 -1 -1 -1 -0 0 1 1 1 1
5 7 5 -0 -1 1 4 6 4 3 3 3 2 2 1 -1 -1 -2 -3 -3 -3 -1 1 2 7 14 18 14 10 7 5 5 6 4 0 -3 -3 -2 -2 -0 2 5 8 7 4 1 -0 -0 0 1 2 2 1 -0 -2 -3 -3 -2 -2 -1 -0 -0 0 0 1 1 1 1 0
6 6 4 1 1 3 5 6 4 3 2 2 2 0 -1 -2 -3 -3 -4 -3 -3 0 4 4 8 14 18 18 12 8 6 6 4 -0 -3 -3 -3 -1 2 7 9 9 8 5 2 1 1 1 2 2 2 2 -0 -2 -2 -3 -2 -1 -0 0 0 0 1 1 1 1 1 1 1
4 4 4 4 6 7 7 7 4 3 2 1 0 -1 -2 -4 -4 -5 -4 -4 -2 2 5 6 8 11 13 12 7 5 6 6 2 -0 -2 -2 -0 4 9 13 12 9 6 3 2 2 2 3 3 2 1 -0 -1 -2 -2 -2 -1 0 0 0 0 1 1 0 1 1 1 1 1
6 4 4 4 7 8 8 7 5 3 1 0 -1 -3 -4 -5 -5 -5 -4 -3 -0 2 3 4 5 7 7 4 2 4 6 6 3 1 0 -0 5 10 13 12 9 7 4 3 3 3 3 3 3 1 -0 -2 -2 -2 -2 -1 0 0 1 0 1 1 1 0 1 1 1 1 1
11 9 7 4 6 7 6 5 3 2 0 -1 -3 -4 -5 -5 -4 -3 -2 0 1 0 -1 0 3 4 3 1 2 6 10 9 7 5 3 3 10 13 12 7 6 5 5 5 4 4 3 2 1 -0 -1 -2 -2 -2 -1 -0 0 1 1 1 1 1 1 1 1 1 1 1 0
11 8 5 5 5 5 5 4 2 1 -1 -2 -3 -4 -3 -3 -1 1 2 3 1 -1 -1 -0 3 3 3 3 9 14 17 14 10 6 4 5 10 10 8 4 4 5 6 6 5 3 2 1 -0 -1 -2 -2 -1 -1 -0 1 1 1 1 1 1 1 1 1 1 1 1 0 0
5 4 2 3 4 5 5 3 2 1 -0 -2 -2 -2 -1 1 3 3 3 1 -0 2 5 7 7 6 6 9 19 23 22 14 7 3 2 3 5 4 4 3 6 7 7 6 4 2 1 0 -1 -1 -1 -1 -0 0 1 1 1 1 1 1 1 1 1 1 1 1 0 -0 -0
3 3 3 4 5 5 4 3 2 1 1 -0 -0 0 1 3 3 2 1 0 1 7 15 19 16 13 13 18 25 27 22 10 3 0 -0 -0 -0 0 2 4 7 8 7 4 2 1 0 -1 -1 -1 -0 0 1 1 1 1 1 1 1 1 1 1 1 1 1 0 -0 -0 -0
4 3 4 5 5 4 3 3 2 2 1 1 2 2 3 2 1 0 -0 0 1 7 16 25 23 22 21 24 25 22 16 7 2 0 -0 -1 -1 1 3 8 9 8 5 2 1 -0 -1 -1 -1 0 1 1 1 1 1 1 1 1 1 1 1 1 1 0 0 0 -0 -0 -0
5 5 5 4 4 4 4 4 4 3 3 4 4 4 2 0 -1 -1 -2 -3 -4 3 14 25 24 21 18 18 16 13 8 4 2 1 0 1 3 5 8 12 10 7 3 -0 -2 -2 -2 -0 1 1 2 1 1 1 1 1 1 1 1 1 1 0 0 0 0 0 -0 -0 -0
4 6 6 5 5 5 5 5 4 4 3 3 3 2 1 0 -1 -3 -4 -6 -1 10 21 26 21 15 9 6 5 4 3 2 1 1 2 5 9 11 13 12 8 3 -1 -4 -4 -2 -0 1 2 2 1 1 1 1 1 1 1 1 1 1 0 -0 -0 0 0 -0 -0 -1 -0
3 5 6 6 6 4 2 1 1 2 2 1 1 1 0 -0 -1 -1 1 3 12 21 25 18 14 9 5 1 2 3 3 0 -0 2 6 10 13 13 11 7 2 -2 -5 -5 -2 0 2 3 2 1 1 1 1 1 1 1 1 1 0 -0 -1 -1 -0 -0 -0 -0 -0 -0 -0
2 2 2 2 1 0 -0 -0 1 1 1 -0 -1 -0 0 0 1 4 8 13 19 17 11 3 3 3 4 5 9 11 8 2 3 6 10 12 11 8 4 -0 -3 -4 -4 -1 2 3 3 2 1 1 1 1 1 1 1 1 1 0 -0 -1 -1 -1 -0 -1 -1 -0 -0 0 0
3 1 -0 -1 -0 0 1 1 1 0 -0 -1 -1 -1 0 2 3 5 7 11 7 2 -3 -4 -3 -1 2 9 16 17 13 7 8 9 9 8 4 1 -2 -4 -3 -1 1 4 4 3 2 1 1 1 1 1 1 1 1 0 -0 -1 -1 -1 -1 -1 -0 -0 -0 -0 -0 -0 -0
3 2 1 1 2 2 2 1 0 -0 -0 -1 -0 0 1 2 3 3 2 -1 -4 -5 -4 -3 -1 2 7 13 16 15 11 8 8 7 4 1 -2 -3 -3 -1 1 3 4 4 3 2 1 1 1 1 1 1 1 0 -0 -1 -1 -1 -1 -0 -0 -0 -0 -0 -0 0 0 -0 -0
2 3 3 3 2 2 1 0 -1 -1 -1 -0 0 0 0 0 -0 -1 -0 1 3 5 6 6 7 10 14 15 12 10 8 7 4 2 -0 -2 -3 -1 1 4 5 4 3 2 2 1 2 2 1 1 1 0 0 -0 -0 -1 -1 -1 -0 -0 0 0 0 0 0 0 0 -0 -0
2 2 1 1 1 0 0 0 -0 0 0 1 1 -0 -1 -3 -2 0 5 14 20 21 19 15 12 9 8 7 6 6 4 2 -0 -1 -2 -1 2 4 5 5 4 3 2 1 2 2 2 2 1 0 0 -0 -0 -0 -1 -1 -1 -0 0 0 0 0 0 0 0 0 0 0 1
2 1 0 -1 -1 -1 -0 1 1 2 2 2 1 -0 -1 -2 -0 5 12 22 23 21 16 11 6 2 -0 0 2 2 1 -1 -1 0 2 5 6 6 5 3 2 2 2 2 2 2 2 1 0 -0 -0 -1 -1 -1 -1 -1 0 0 0 0 0 0 0 0 0 0 1 1 1
1 2 1 -0 -1 -1 -0 1 1 2 3 3 2 2 1 1 5 11 17 18 13 9 5 1 -2 -2 -2 -1 -0 0 0 1 3 5 7 7 6 4 3 2 2 2 2 2 2 1 1 -0 -0 -1 -1 -1 -1 -1 -1 0 0 1 0 0 0 0 0 1 1 1 1 1 1
1 1 -0 -0 -1 -0 -0 0 1 1 2 3 3 3 5 8 14 17 15 10 3 -2 -4 -5 -3 -2 -2 -1 -0 1 3 6 8 8 7 5 4 3 2 1 1 1 1 1 1 0 -0 -1 -1 -1 -1 -1 -1 -0 0 1 0 0 0 0 0 0 1 1 1 1 1 1 1
3 1 0 0 1 1 1 1 1 1 2 4 4 6 10 17 18 14 8 2 -3 -5 -5 -3 -1 -1 -1 -0 2 6 9 10 9 7 5 3 2 1 1 1 1 1 1 0 -0 -0 -1 -1 -1 -1 -1 -1 -0 0 1 0 0 0 0 0 1 1 1 1 1 1 1 1 1
6 5 3 2 3 3 3 3 4 5 7 7 7 11 16 17 11 5 0 -3 -3 -2 -1 1 1 1 2 4 8 11 11 8 6 3 2 1 1 0 0 0 0 0 -0 -0 -0 -1 -1 -1 -2 -1 -1 -0 0 0 1 0 0 0 1 1 1 1 1 1 1 1 1 0 0
5 4 3 3 4 4 5 7 10 12 12 9 11 13 13 7 1 -2 -3 -2 -0 1 2 2 3 5 7 11 12 10 6 3 2 1 0 0 -0 -0 -0 0 0 0 -0 -0 -1 -1 -2 -2 -1 -1 -0 0 0 0 1 1 1 1 1 1 0 0 1 1 1 0 0 0 -0
1 2 3 4 4 5 7 10 12 11 9 7 8 7 4 -2 -3 -3 -2 1 3 3 3 4 7 9 11 11 8 4 2 0 -0 -0 -0 -0 0 0 0 0 0 -0 -1 -1 -1 -2 -1 -1 -0 0 0 1 1 1 1 1 1 1 1 0 0 0 1 1 1 0 0 -0 -0
5 3 3 3 3 3 4 5 5 4 3 2 3 1 -1 -2 -2 -1 1 4 5 6 7 8 10 10 8 5 2 1 -0 -0 -0 0 0 1 1 1 1 0 -0 -1 -1 -2 -2 -1 -1 -0 0 0 1 1 1 1 1 1 1 1 1 1 0 0 1 1 1 1 0 0 0
8 1 -2 -2 -1 -1 -1 -1 -1 -1 -1 -1 -0 -0 0 1 2 3 5 7 7 7 8 8 7 5 3 1 -0 -1 -1 -0 1 1 1 1 1 1 -0 -1 -1 -2 -2 -1 -1 -0 -0 0 1 1 1 1 1 1 1 1 1 1 1 1 1 1 1 1 1 1 0 0 0
3 -2 -5 -3 -1 -1 -1 -2 -3 -2 -2 -1 -0 1 2 4 6 8 9 8 8 7 7 5 3 2 0 -1 -1 -0 0 1 1 1 1 0 -0 -1 -1 -2 -2 -1 -1 -0 0 0 0 1 1 1 2 2 1 1 1 1 1 1 1 1 1 1 1 1 1 1 0 -0 -0
-1 -2 -2 -0 1 1 1 2 2 2 2 3 4 4 5 8 11 12 11 11 10 8 6 3 1 -0 -0 -0 0 1 1 1 1 -0 -1 -1 -1 -1 -1 -1 -1 -0 0 0 1 1 1 1 2 2 2 1 1 1 1 1 1 1 1 1 1 1 0 0 0 0 -0 -0 -1
Height
5549 5554 5558 5563 5568 5574 5580 5586 5593 5600 5608 5616 5626 5635 5644 5651 5658 5665 5672 5680 5687 5693 5698 5703 5707 5711 5715 5719 5722 5725 5728 5730 5733 5735 5737 5739 5741 5743 5744 5745 5746 5748 5749 5751 5752 5754 5755 5757 5758 5760 5761 5762 5763 5764 5765 5765 5766 5767 5768 5768 5769 5770 5770 5771 5771 5771 5771 5772 5772
5549 5553 5558 5563 5568 5574 5580 5586 5593 5600 5608 5616 5626 5636 5644 5651 5658 5665 5672 5680 5686 5692 5697 5702 5706 5710 5714 5718 5721 5724 5727 5730 5732 5734 5736 5738 5740 5741 5743 5744 5745 5747 5748 5750 5752 5753 5755 5756 5757 5758 5760 5761 5762 5763 5763 5764 5765 5765 5766 5767 5768 5768 5769 5769 5770 5770 5770 5770 5770
5548 5553 5558 5563 5568 5574 5580 5587 5594 5601 5609 5617 5625 5635 5643 5650 5658 5665 5673 5680 5686 5691 5696 5701 5705 5709 5713 5717 5720 5724 5726 5729 5731 5733 5735 5736 5739 5740 5742 5743 5744 5746 5747 5749 5751 5752 5753 5755 5756 5757 5758 5759 5760 5761 5762 5762 5763 5764 5765 5765 5766 5766 5767 5767 5768 5768 5769 5769 5769
5549 5554 5559 5564 5569 5575 5580 5587 5594 5602 5610 5618 5626 5635 5643 5650 5658 5665 5673 5680 5686 5691 5695 5700 5704 5709 5713 5716 5720 5723 5726 5728 5730 5732 5733 5735 5737 5739 5740 5742 5743 5745 5747 5748 5750 5751 5752 5753 5754 5755 5757 5758 5759 5760 5760 5761 5762 5762 5763 5764 5764 5765 5765 5766 5766 5767 5767 5767 5768
5550 5555 5560 5565 5570 5575 5582 5588 5594 5602 5611 5619 5627 5635 5643 5650 5658 5666 5673 5680 5685 5690 5694 5699 5704 5708 5712 5716 5719 5722 5725 5727 5729 5730 5732 5734 5736 5738 5739 5740 5742 5744 5746 5747 5749 5750 5751 5752 5753 5754 5755 5756 5757 5758 5759 5759 5760 5761 5761 5762 5763 5764 5764 5765 5765 5765 5766 5766 5766
5551 5556 5560 5565 5571 5577 5584 5589 5595 5604 5612 5620 5628 5635 5643 5651 5659 5666 5673 5679 5684 5689 5694 5699 5703 5708 5712 5715 5719 5721 5724 5726 5727 5729 5731 5733 5735 5736 5738 5740 5741 5743 5745 5746 5747 5748 5749 5750 5752 5753 5754 5755 5755 5756 5757 5758 5758 5759 5760 5761 5762 5762 5763 5763 5764 5764 5765 5765 5765
5553 5557 5562 5567 5573 5579 5585 5590 5597 5605 5613 5621 5629 5637 5645 5652 5660 5667 5673 5679 5684 5689 5694 5699 5703 5707 5711 5714 5717 5720 5723 5725 5726 5728 5730 5732 5733 5735 5737 5739 5740 5742 5744 5745 5746 5747 5748 5749 5750 5751 5752 5753 5754 5754 5755 5756 5757 5758 5759 5760 5760 5761 5761 5762 5762 5763 5763 5764 5764
5554 5558 5563 5568 5575 5581 5586 5592 5599 5607 5615 5622 5630 5638 5646 5654 5661 5668 5674 5679 5684 5689 5694 5698 5703 5707 5710 5714 5716 5719 5721 5724 5725 5727 5729 5731 5733 5734 5736 5738 5740 5741 5743 5744 5745 5745 5746 5748 5749 5750 5750 5751 5752 5753 5754 5755 5756 5757 5758 5759 5759 5760 5760 5761 5761 5762 5762 5762 5763
5555 5560 5565 5570 5576 5581 5587 5593 5601 5609 5616 5623 5631 5640 5647 5655 5662 5668 5674 5679 5684 5689 5694 5698 5702 5706 5710 5713 5716 5719 5721 5723 5725 5726 5728 5730 5732 5734 5735 5737 5739 5740 5742 5743 5744 5745 5745 5746 5747 5748 5749 5750 5750 5751 5752 5754 5755 5756 5756 5757 5758 5758 5759 5760 5760 5760 5761 5761 5761
5557 5561 5567 5572 5577 5583 5589 5595 5603 5610 5617 5625 5633 5641 5649 5656 5662 5668 5674 5679 5684 5689 5694 5698 5701 5705 5709 5712 5715 5717 5720 5722 5724 5726 5728 5730 5731 5733 5735 5737 5738 5740 5740 5741 5742 5743 5744 5745 5746 5747 5747 5748 5750 5751 5752 5753 5754 5754 5755 5755 5756 5757 5758 5758 5759 5759 5760 5760 5760
5558 5563 5568 5573 5579 5585 5591 5597 5605 5612 5620 5627 5635 5643 5650 5656 5663 5668 5674 5680 5685 5689 5693 5697 5701 5705 5708 5710 5714 5716 5718 5720 5722 5725 5727 5729 5730 5732 5734 5735 5737 5738 5739 5740 5741 5742 5743 5744 5745 5745 5746 5748 5749 5750 5751 5751 5752 5753 5753 5754 5755 5756 5757 5757 5758 5758 5758 5758 5759
5560 5565 5570 5575 5582 5588 5594 5599 5607 5614 5621 5629 5637 5644 5651 5657 5663 5669 5674 5680 5685 5689 5693 5696 5700 5704 5707 5710 5712 5715 5717 5719 5722 5724 5726 5728 5729 5730 5733 5734 5736 5737 5738 5739 5740 5741 5742 5743 5744 5745 5746 5747 5748 5749 5750 5750 5750 5751 5752 5753 5754 5755 5755 5756 5756 5757 5757 5757 5757
5562 5567 5572 5578 5585 5591 5596 5602 5608 5615 5623 5631 5638 5645 5652 5658 5664 5670 5675 5680 5685 5689 5693 5696 5699 5703 5706 5710 5712 5714 5716 5718 5721 5723 5725 5726 5728 5730 5731 5733 5734 5735 5737 5738 5739 5740 5740 5742 5743 5744 5745 5746 5747 5748 5748 5748 5749 5750 5751 5753 5753 5754 5754 5755 5755 5755 5755 5755 5755
5564 5569 5574 5580 5588 5593 5598 5604 5611 5618 5625 5633 5640 5646 5653 5659 5665 5670 5676 5680 5685 5689 5692 5696 5700 5703 5706 5710 5712 5714 5715 5718 5720 5722 5724 5725 5727 5728 5730 5731 5733 5734 5735 5736 5737 5738 5740 5741 5742 5743 5745 5745 5746 5746 5746 5746 5748 5750 5751 5752 5752 5753 5753 5754 5754 5754 5754 5754 5754
5565 5571 5577 5583 5590 5595 5600 5606 5613 5620 5628 5635 5641 5648 5654 5660 5666 5671 5676 5680 5685 5689 5692 5696 5700 5702 5706 5709 5711 5713 5715 5717 5719 5721 5723 5724 5725 5727 5728 5730 5732 5733 5734 5735 5736 5737 5739 5740 5741 5743 5744 5744 5744 5744 5745 5746 5747 5749 5750 5750 5751 5751 5752 5752 5752 5753 5753 5753 5753
5568 5574 5580 5587 5592 5597 5603 5609 5616 5623 5630 5637 5643 5650 5656 5662 5667 5672 5676 5681 5685 5689 5693 5697 5700 5702 5705 5708 5710 5712 5714 5716 5718 5720 5722 5723 5724 5726 5728 5730 5731 5732 5733 5734 5735 5737 5738 5740 5741 5741 5742 5742 5742 5742 5744 5745 5747 5748 5748 5749 5749 5750 5750 5751 5751 5751 5751 5751 5751
5572 5578 5584 5591 5595 5600 5605 5612 5619 5625 5632 5639 5645 5652 5658 5663 5668 5673 5677 5681 5685 5690 5694 5697 5700 5702 5705 5707 5710 5711 5713 5715 5717 5720 5721 5722 5724 5725 5728 5729 5730 5731 5731 5733 5735 5736 5738 5739 5740 5740 5740 5740 5740 5741 5743 5745 5746 5746 5747 5747 5748 5749 5749 5750 5750 5750 5750 5750 5750
5576 5582 5588 5594 5598 5602 5609 5615 5622 5629 5635 5642 5648 5654 5660 5665 5669 5674 5678 5682 5686 5690 5694 5697 5700 5702 5704 5706 5709 5710 5713 5715 5718 5720 5721 5722 5723 5725 5727 5728 5729 5730 5731 5732 5734 5735 5737 5737 5738 5738 5738 5739 5739 5741 5742 5744 5745 5745 5746 5746 5747 5747 5748 5748 5749 5749 5749 5749 5748
5578 5585 5591 5596 5600 5605 5612 5618 5625 5632 5638 5645 5650 5656 5661 5666 5670 5674 5679 5683 5687 5690 5694 5696 5699 5700 5702 5705 5708 5711 5713 5716 5719 5720 5720 5721 5723 5724 5726 5727 5728 5729 5730 5732 5733 5735 5735 5736 5736 5736 5737 5737 5739 5740 5742 5743 5743 5744 5745 5745 5746 5746 5747 5747 5747 5748 5747 5747 5747
5580 5587 5595 5599 5603 5609 5616 5622 5629 5635 5641 5647 5653 5658 5662 5667 5671 5675 5679 5683 5688 5691 5694 5696 5697 5700 5702 5705 5709 5712 5715 5717 5718 5719 5720 5722 5723 5724 5725 5726 5727 5728 5730 5731 5732 5733 5734 5734 5735 5735 5735 5736 5738 5740 5741 5742 5742 5743 5744 5744 5745 5745 5746 5746 5746 5746 5746 5745 5745
5585 5592 5597 5601 5607 5614 5620 5626 5632 5638 5644 5650 5655 5659 5664 5668 5672 5676 5680 5684 5688 5691 5694 5696 5699 5701 5704 5707 5710 5713 5715 5716 5717 5718 5720 5721 5722 5723 5724 5725 5726 5727 5729 5730 5731 5732 5732 5732 5733 5733 5734 5736 5738 5739 5740 5741 5741 5742 5743 5743 5744 5744 5745 5745 5745 5745 5744 5744 5743
5590 5596 5601 5606 5612 5618 5624 5630 5636 5641 5647 5652 5657 5661 5665 5670 5674 5678 5681 5685 5687 5690 5693 5697 5700 5703 5705 5708 5710 5712 5714 5715 5716 5717 5719 5720 5721 5721 5723 5724 5725 5726 5728 5729 5729 5730 5730 5730 5731 5732 5734 5736 5737 5738 5739 5740 5740 5741 5742 5743 5743 5744 5744 5744 5743 5743 5742 5742 5741
5595 5600 5606 5610 5616 5622 5628 5634 5639 5644 5649 5655 5660 5664 5669 5673 5676 5680 5683 5685 5688 5690 5693 5697 5700 5703 5706 5708 5710 5712 5714 5714 5715 5717 5718 5719 5720 5720 5721 5722 5724 5725 5725 5726 5727 5728 5728 5729 5730 5732 5734 5735 5736 5737 5738 5739 5740 5740 5741 5742 5742 5742 5742 5742 5742 5741 5740 5740 5740
5599 5605 5611 5616 5621 5626 5632 5638 5643 5647 5652 5657 5662 5667 5671 5675 5678 5680 5683 5685 5688 5691 5695 5698 5701 5704 5707 5709 5711 5712 5713 5714 5715 5716 5717 5718 5718 5719 5720 5720 5721 5722 5723 5724 5725 5726 5727 5729 5730 5732 5734 5735 5736 5737 5737 5738 5739 5740 5740 5741 5741 5741 5741 5740 5740 5739 5739 5738 5738
5604 5610 5616 5621 5626 5631 5636 5641 5646 5651 5655 5660 5665 5670 5673 5676 5679 5681 5683 5686 5689 5693 5697 5700 5702 5705 5707 5709 5710 5712 5713 5713 5714 5715 5716 5716 5717 5717 5718 5719 5720 5720 5722 5723 5724 5726 5727 5729 5730 5732 5733 5734 5735 5736 5737 5738 5739 5739 5740 5740 5740 5739 5739 5739 5738 5738 5737 5736 5736
5610 5615 5620 5625 5630 5635 5640 5645 5650 5654 5659 5663 5667 5671 5674 5677 5680 5682 5685 5688 5692 5696 5699 5701 5703 5705 5706 5708 5710 5711 5711 5711 5712 5714 5714 5715 5715 5716 5717 5718 5719 5721 5722 5723 5725 5726 5728 5729 5730 5731 5732 5733 5734 5735 5736 5737 5738 5738 5738 5738 5738 5737 5737 5737 5736 5736 5735 5735 5734
5615 5620 5625 5630 5635 5639 5644 5649 5653 5657 5661 5665 5669 5672 5675 5678 5681 5685 5688 5692 5695 5697 5699 5701 5703 5704 5706 5708 5709 5709 5709 5710 5710 5712 5712 5713 5714 5715 5717 5718 5720 5721 5722 5723 5725 5726 5727 5728 5730 5730 5732 5733 5734 5735 5735 5736 5737 5737 5736 5736 5736 5736 5735 5735 5735 5734 5734 5733 5732
5620 5625 5630 5635 5639 5644 5648 5652 5656 5660 5664 5667 5670 5674 5677 5680 5683 5687 5690 5693 5695 5696 5699 5700 5702 5704 5705 5706 5707 5708 5707 5708 5709 5710 5711 5712 5714 5715 5717 5718 5720 5721 5722 5723 5725 5725 5727 5728 5729 5730 5731 5732 5733 5734 5735 5735 5735 5735 5735 5735 5734 5734 5734 5734 5733 5733 5732 5731 5731
5625 5629 5634 5638 5642 5647 5651 5655 5659 5663 5666 5670 5673 5676 5680 5682 5685 5688 5691 5694 5695 5697 5698 5700 5701 5703 5704 5705 5705 5705 5706 5707 5708 5710 5711 5713 5714 5715 5717 5718 5720 5721 5722 5723 5724 5725 5726 5727 5729 5730 5731 5732 5732 5733 5733 5734 5733 5733 5733 5733 5733 5732 5732 5732 5731 5731 5730 5730 5729
5630 5634 5638 5642 5646 5650 5654 5658 5662 5665 5669 5673 5675 5679 5681 5684 5687 5690 5692 5694 5696 5697 5698 5700 5701 5702 5703 5703 5703 5704 5705 5706 5708 5710 5711 5713 5714 5715 5717 5718 5719 5720 5721 5722 5724 5725 5726 5727 5728 5730 5730 5731 5731 5732 5732 5732 5732 5732 5732 5731 5731 5731 5731 5730 5730 5730 5729 5728 5728
5636 5640 5643 5647 5650 5654 5658 5661 5665 5668 5671 5675 5677 5680 5683 5685 5688 5690 5692 5694 5696 5697 5698 5699 5700 5700 5701 5702 5703 5704 5705 5707 5708 5710 5711 5713 5714 5716 5717 5718 5719 5720 5721 5722 5724 5725 5726 5727 5728 5729 5729 5730 5730 5730 5730 5730 5730 5730 5730 5730 5730 5730 5729 5729 5728 5728 5727 5727 5726
5641 5645 5648 5651 5654 5657 5661 5664 5667 5670 5673 5676 5678 5681 5683 5685 5687 5690 5692 5694 5695 5696 5697 5698 5698 5699 5700 5702 5703 5704 5705 5707 5708 5710 5711 5713 5715 5715 5716 5718 5719 5720 5721 5722 5724 5725 5726 5726 5727 5728 5728 5729 5729 5729 5729 5729 5729 5729 5729 5729 5728 5728 5728 5727 5727 5726 5726 5725 5725
5646 5649 5652 5655 5657 5660 5663 5666 5669 5672 5675 5677 5679 5681 5683 5685 5688 5690 5692 5693 5694 5695 5695 5695 5697 5698 5700 5701 5703 5704 5705 5707 5708 5710 5712 5713 5714 5715 5716 5717 5719 5720 5721 5722 5723 5724 5725 5726 5726 5727 5727 5727 5727 5727 5728 5728 5728 5728 5727 5727 5727 5726 5726 5726 5725 5725 5724 5723 5723
5650 5652 5655 5658 5660 5663 5666 5669 5671 5674 5676 5678 5680 5682 5685 5687 5689 5690 5691 5692 5692 5692 5693 5695 5697 5698 5700 5701 5703 5704 5705 5707 5709 5710 5712 5713 5714 5715 5716 5718 5719 5720 5721 5722 5723 5724 5724 5725 5725 5725 5725 5726 5726 5726 5726 5726 5726 5726 5726 5726 5725 5725 5725 5724 5724 5723 5722 5722 5721
5652 5654 5657 5660 5663 5665 5668 5670 5673 5675 5677 5680 5682 5684 5687 5688 5689 5690 5690 5690 5690 5692 5694 5696 5697 5698 5700 5701 5703 5705 5706 5708 5709 5710 5712 5713 5714 5715 5716 5718 5719 5720 5720 5721 5722 5723 5723 5723 5724 5724 5725 5725 5725 5725 5725 5725 5725 5725 5725 5725 5724 5724 5723 5723 5722 5721 5720 5720 5719
5655 5657 5660 5662 5665 5668 5670 5672 5674 5676 5679 5681 5683 5686 5687 5688 5688 5689 5689 5690 5691 5693 5695 5696 5697 5699 5700 5702 5704 5705 5707 5708 5710 5710 5712 5713 5714 5715 5716 5717 5718 5719 5720 5720 5721 5721 5722 5722 5723 5723 5723 5724 5724 5724 5724 5724 5724 5724 5723 5723 5723 5722 5721 5721 5720 5719 5719 5718 5717
5659 5661 5663 5665 5667 5670 5672 5674 5675 5677 5680 5682 5684 5686 5686 5687 5687 5688 5689 5690 5692 5694 5695 5696 5698 5699 5701 5703 5704 5706 5707 5708 5710 5710 5712 5713 5714 5715 5716 5717 5718 5718 5719 5719 5720 5720 5721 5721 5722 5722 5722 5723 5723 5723 5723 5723 5722 5722 5722 5721 5721 5720 5720 5719 5718 5717 5717 5716 5715
5663 5665 5667 5668 5670 5671 5673 5675 5676 5678 5680 5682 5684 5685 5686 5687 5687 5688 5689 5691 5692 5694 5695 5697 5698 5700 5701 5703 5705 5706 5707 5708 5709 5710 5711 5712 5713 5714 5715 5716 5717 5717 5718 5718 5719 5719 5720 5720 5721 5721 5721 5721 5722 5722 5721 5721 5721 5721 5720 5720 5719 5718 5718 5717 5716 5716 5715 5715 5714
5665 5667 5668 5670 5671 5673 5674 5676 5678 5680 5682 5683 5684 5685 5686 5687 5687 5689 5690 5691 5693 5694 5695 5697 5699 5700 5702 5703 5705 5705 5706 5708 5709 5710 5711 5712 5713 5714 5714 5715 5715 5716 5717 5717 5718 5718 5719 5720 5720 5720 5720 5720 5720 5720 5720 5720 5720 5719 5718 5718 5717 5717 5716 5715 5715 5714 5714 5713 5712
5666 5668 5670 5671 5673 5674 5675 5676 5678 5679 5681 5682 5683 5684 5685 5687 5688 5689 5690 5691 5693 5694 5695 5697 5699 5700 5702 5703 5704 5705 5706 5707 5708 5709 5710 5711 5712 5712 5713 5714 5715 5715 5716 5716 5717 5718 5718 5718 5719 5719 5719 5719 5719 5719 5718 5718 5718 5717 5717 5716 5716 5715 5715 5714 5713 5713 5712 5711 5711
5669 5670 5672 5674 5675 5675 5675 5676 5677 5678 5679 5681 5683 5685 5687 5688 5689 5690 5690 5691 5692 5694 5695 5697 5699 5700 5701 5702 5703 5705 5705 5706 5707 5708 5709 5710 5710 5711 5712 5713 5714 5714 5715 5715 5716 5716 5717 5717 5717 5717 5717 5717 5717 5717 5716 5716 5716 5715 5715 5715 5714 5714 5713 5712 5712 5711 5710 5710 5709